Tracking 29892 objects as of 21-Nov-2024
HD Live streaming from Space Station
objects crossing your sky now

STARLINK-2605

Track STARLINK-2605 now!
10-day predictions
STARLINK-2605 is classified as:


NORAD ID: 48392
Int'l Code: 2021-038AR
Perigee: 553.3 km
Apogee: 555.4 km
Inclination: 53.1 °
Period: 95.6 minutes
Semi major axis: 6925 km
RCS: Unknown
Launch date: May 4, 2021
Source: United States (US)
Launch site: AIR FORCE EASTERN TEST RANGE (AFETR)
Your satellite tracking list
Your tracking list is empty




NASA's NSSDC Master Catalog

Two Line Element Set (TLE):
1 48392U 21038AR  24325.38953182 -.00001193  00000-0 -61221-4 0  9997
2 48392  53.0560 310.8341 0001551 114.6230 245.4921 15.06394429197036
Source of the keplerian elements: AFSPC